Regional Weather Roundup
Issued by NWS

Home | Current Version | Previous Version | Graphics & Text | Print | Product List | Glossary On
Versions: 1 2 3 4 5 6 7 8 9 10 11 12 13 14 15 16 17 18 19 20 21 22 23 24 25 26 27 28 29 30 31 32 33 34 35 36 37 38 39 40 41 42 43 44 45 46 47 48 49 50
000
ASUS43 KMKX 220011
RWRWI

WISCONSIN REGIONAL WEATHER ROUNDUP
NATIONAL WEATHER SERVICE MILWAUKEE/SULLIVAN WI
700 PM CDT THU SEP 21 2017

NOTE: "FAIR" INDICATES FEW OR NO CLOUDS BELOW 12,000 FEET WITH NO
SIGNIFICANT WEATHER AND/OR OBSTRUCTIONS TO VISIBILITY.

WIZ001-002-006>008-014>016-023>028-220100-
NORTHWEST WISCONSIN

CITY           SKY/WX    TMP DP  RH WIND       PRES   REMARKS
SUPERIOR ARPT  PTCLDY    60  58  93 NE13G23   29.89S
6HR MIN TEMP:  60; 6HR MAX TEMP:  65;

ASHLAND        PTCLDY    61  57  87 N6        29.92S
6HR MIN TEMP:  61; 6HR MAX TEMP:  72;

HAYWARD        PTCLDY    73  66  78 SE9       29.91R
6HR MIN TEMP:  73; 6HR MAX TEMP:  81;

SIREN          CLEAR     74  66  75 SE7       29.87R
6HR MIN TEMP:  74; 6HR MAX TEMP:  82;

CUMBERLAND     CLEAR     72  64  78 SE10      29.88F
RICE LAKE      CLEAR     73  67  80 E6        29.90S
6HR MIN TEMP:  73; 6HR MAX TEMP:  80;

CHETEK         CLEAR     74  69  85 E6        29.89S
6HR MIN TEMP:  74; 6HR MAX TEMP:  79;

LADYSMITH      CLEAR     73  67  81 E6        29.94S
6HR MIN TEMP:  73; 6HR MAX TEMP:  80;

EAU CLAIRE     CLEAR     78  67  68 SE9       29.87S HX  80
6HR MIN TEMP:  75; 6HR MAX TEMP:  82;

MENOMONIE      CLEAR     77  66  69 E8        29.87R
6HR MIN TEMP:  77; 6HR MAX TEMP:  82;

NEW RICHMOND   PTCLDY    76  65  68 SE7       29.84F
6HR MIN TEMP:  76; 6HR MAX TEMP:  81;

OSCEOLA        CLEAR     77  67  70 E9        29.86S
6HR MIN TEMP:  77; 6HR MAX TEMP:  82;

$$

WIZ003>005-009-010-017-018-220100-
NORTH CENTRAL WISCONSIN

CITY           SKY/WX    TMP DP  RH WIND       PRES   REMARKS
MANITOWISH WTR MOCLDY    72  70  93 S8        29.97R
6HR MIN TEMP:  72; 6HR MAX TEMP:  79;

ARBOR VITAE    CLEAR     73  68  82 S9        29.98S
6HR MIN TEMP:  73; 6HR MAX TEMP:  80;

WOODRUFF       CLEAR     73  68  82 S9        29.98S
6HR MIN TEMP:  73; 6HR MAX TEMP:  80;

RHINELANDER    PTCLDY    70  68  93 SE6       30.00S
6HR MIN TEMP:  70; 6HR MAX TEMP:  80;

EAGLE RIVER    CLOUDY    72  64  75 S8        29.99R
6HR MIN TEMP:  72; 6HR MAX TEMP:  80;

LAND O LAKES   CLEAR     73  65  77 S7        30.00S
6HR MIN TEMP:  73; 6HR MAX TEMP:  80;

PHILLIPS       CLEAR     71  68  89 SE5       29.95S
6HR MIN TEMP:  71; 6HR MAX TEMP:  79;

TOMAHAWK       CLEAR     69  65  85 CALM      29.98S
6HR MIN TEMP:  69; 6HR MAX TEMP:  79;

MEDFORD        CLEAR     71  67  87 SE6       29.95S
6HR MIN TEMP:  71; 6HR MAX TEMP:  74;

MERRILL        CLEAR     72  68  87 SE5       29.98S
$$

WIZ029-030-035-036-043>047-220100-
CENTRAL WISCONSIN

CITY           SKY/WX    TMP DP  RH WIND       PRES   REMARKS
WAUSAU         CLEAR     74  67  78 SE7       29.95S
6HR MIN TEMP:  73; 6HR MAX TEMP:  77;

MOSINEE        PTCLDY    73  66  78 SE5       29.98S
MARSHFIELD     CLEAR     75  64  68 SE8       29.95S
6HR MIN TEMP:  70; 6HR MAX TEMP:  80;

STEVENS POINT  CLEAR     72  67  83 CALM      29.97S
6HR MIN TEMP:  68; 6HR MAX TEMP:  79; 6HR PCP:  0.01;

WAUPACA        CLEAR     76  72  87 CALM      29.96S
6HR MIN TEMP:  72; 6HR MAX TEMP:  85;

WAUTOMA        CLOUDY    75  70  84 CALM      29.96S
6HR MIN TEMP:  74; 6HR MAX TEMP:  84;

WISC RAPIDS    CLEAR     75  66  73 SE5       29.96F
6HR MIN TEMP:  71; 6HR MAX TEMP:  82;

CAMP DOUGLAS   CLEAR     75  66  73 E6        29.92F
$$

WIZ011>013-019>022-031-037>040-048>050-220100-
NORTHEAST WISCONSIN

CITY           SKY/WX    TMP DP  RH WIND       PRES   REMARKS
ANTIGO         CLEAR     68  66  94 SE5       30.00S
6HR MIN TEMP:  68; 6HR MAX TEMP:  77;

SHAWANO        CLEAR     74  70  85 CALM      29.97S
6HR MIN TEMP:  74; 6HR MAX TEMP:  80;

OCONTO         CLEAR     69  67  90 E3        29.98S
6HR MIN TEMP:  69; 6HR MAX TEMP:  78;

STURGEON BAY   CLOUDY    68  65  90 SE7       30.01R
6HR MIN TEMP:  68; 6HR MAX TEMP:  78;

GREEN BAY      CLOUDY    72  70  93 NE6       29.98S
6HR MIN TEMP:  72; 6HR MAX TEMP:  85;

MANITOWOC      CLOUDY    66  65  96 E6        30.01R
6HR MIN TEMP:  66; 6HR MAX TEMP:  75;

APPLETON       MOCLDY    79  61  53 VRB5      29.96F HX  80
CLINTONVILLE   NOT AVBL
OSHKOSH        CLOUDY    78  67  68 SE6       29.97S HX  80
6HR MIN TEMP:  77; 6HR MAX TEMP:  85;

$$

WIZ032>034-041-042-053>061-220100-
SOUTHWEST WISCONSIN

CITY           SKY/WX    TMP DP  RH WIND       PRES   REMARKS
LA CROSSE      CLEAR     82  64  54 SE9       29.87  HX  84
SPARTA         CLEAR     77  65  67 SE5       29.91F
6HR MIN TEMP:  77; 6HR MAX TEMP:  83;

VIROQUA        CLEAR     77  63  60 SE9       29.93S
6HR MIN TEMP:  77; 6HR MAX TEMP:  84;

BOSCOBEL       CLEAR     84  62  47 VRB7      29.91S HX  85
6HR MIN TEMP:  84; 6HR MAX TEMP:  90;

PRAIRIE DU CHI CLEAR     82  62  50 SE9       29.89S HX  83
6HR MIN TEMP:  82; 6HR MAX TEMP:  87;

PLATTEVILLE    CLEAR     79  67  65 S6        29.96S HX  81
6HR MIN TEMP:  79; 6HR MAX TEMP:  87;

$$

WIZ056-057-062-063-064-067-068-220100-
SOUTH CENTRAL WISCONSIN

CITY           SKY/WX    TMP DP  RH WIND       PRES   REMARKS
REEDSBURG      CLOUDY    79  66  65 CALM      29.94S HX  81
6HR MIN TEMP:  79; 6HR MAX TEMP:  85;

BARABOO/DELLS  CLOUDY    78  65  65 SE6       29.95S HX  80
6HR MIN TEMP:  78; 6HR MAX TEMP:  84;

LONE ROCK      CLEAR     80  65  59 SE5       29.93S HX  82
6HR MIN TEMP:  80; 6HR MAX TEMP:  87;

MINERAL POINT  CLOUDY    81  64  57 S9        29.96S HX  82
MADISON        CLOUDY    82  69  64 S6        29.96S HX  85
6HR MIN TEMP:  80; 6HR MAX TEMP:  84;

MIDDLETON      CLOUDY    82  65  57 S6        29.97S HX  84
6HR MIN TEMP:  80; 6HR MAX TEMP:  85;

WATERTOWN      PTCLDY    78  69  74 SE5       29.97R
6HR MIN TEMP:  78; 6HR MAX TEMP:  84;

MONROE         MOCLDY    81  63  54 S8        29.97S HX  82
JANESVILLE     NOT AVBL
$$

WIZ051-052-058>065-066-070>072-220100-
SOUTHEAST WISCONSIN

CITY           SKY/WX    TMP DP  RH WIND       PRES   REMARKS
MILWAUKEE      MOCLDY    76  69  79 E5        29.99R
6HR MIN TEMP:  76; 6HR MAX TEMP:  85;

WAUKESHA       CLEAR     75  66  73 E7        30.00R
MILWAUKEE/TIMM CLEAR     77  64  65 E5        29.99S
RACINE         CLEAR     76  69  79 SE6       30.01R HAZE
6HR MIN TEMP:  76; 6HR MAX TEMP:  84;

BURLINGTON     PTCLDY    80  67  65 SE6       29.99R HX  82
6HR MIN TEMP:  80; 6HR MAX TEMP:  93;

KENOSHA        CLEAR     76  68  76 E7        30.00R
6HR MIN TEMP:  76; 6HR MAX TEMP:  92;

FOND DU LAC    CLOUDY    78  65  63 SE6       29.98R HX  80
6HR MIN TEMP:  78; 6HR MAX TEMP:  85;

SHEBOYGAN      CLOUDY    72  69  90 SE6       30.00R
6HR MIN TEMP:  72; 6HR MAX TEMP:  84;

WEST BEND        N/A     72  68  88 E3        30.00R
JUNEAU         CLOUDY    76  67  71 E7        29.98S
6HR MIN TEMP:  76; 6HR MAX TEMP:  83;

$$

LSZ147-162-220100-
LAKE SUPERIOR

STATION/POSITION TIME  TEMP    WIND        PRES    WAVE
                       AIR SEA DIR/SP/G            HT/PER
                 (UTC) (F)     (DEG/KT/KT) (MB)    (FT/S)
W MID LAKE BUOY  2350   58 54   70/ 16/ 17 1013.5F   2/ 3
DEVILS ISLAND    0000   60      60/ 17/ 19 1013.0F
SAXON HARBOR     2330   64     200/  5/  6 1012.2S
$$

LMZ867-665-643>646-220100-
LAKE MICHIGAN

STATION/POSITION TIME  TEMP    WIND        PRES    WAVE
                       AIR SEA DIR/SP/G            HT/PER
                 (UTC) (F)     (DEG/KT/KT) (MB)    (FT/S)
S GREEN BAY BUOY 0000   69 68   80/  8/ 10 1015.1
N MID LAKE BUOY  2350   67 67  160/  8/  8 1016.6R   1
N



USA.gov is the U.S. government's official web portal to all federal, state and local government web resources and services.